Regional Weather Roundup
Issued by NWS

Home | Current Version | Previous Version | Text Only | Print | Product List | Glossary Off
Versions: 1 2 3 4 5 6 7 8 9 10 11 12 13 14 15 16 17 18 19 20 21 22 23 24 25 26 27 28 29 30 31 32 33 34 35 36 37 38 39 40 41 42 43 44 45 46 47 48 49 50

000
ASUS43 KBIS 271010
RWRND

NORTH DAKOTA REGIONAL WEATHER ROUNDUP
NATIONAL WEATHER SERVICE BISMARCK ND
400 AM CST SAT DEC 27 2014

NOTE: "FAIR" INDICATES FEW OR NO CLOUDS BELOW 12,000 FEET WITH NO
SIGNIFICANT WEATHER AND/OR OBSTRUCTIONS TO VISIBILITY.


NDZ001>003-009>011-017-271100-
NORTHWEST NORTH DAKOTA

CITY           SKY/WX    TMP DP  RH WIND       PRES   REMARKS
WILLISTON      CLEAR     11   7  84 CALM      30.07F
MINOT          CLOUDY    20  15  81 SW9       30.04S WCI   9
MINOT AFB      CLOUDY    20  19  98 W10       30.04S WCI   9
$$

NDZ018>021-031>035-040>046-271100-
SOUTHWEST NORTH DAKOTA

CITY           SKY/WX    TMP DP  RH WIND       PRES   REMARKS
BISMARCK       CLOUDY     5   2  87 SE5       30.12F WCI  -4
DICKINSON      CLOUDY    23  16  74 W13       30.04F WCI  11
GARRISON         N/A     20  16  84 W8        30.05F WCI  10
HETTINGER ARPT CLOUDY    18  13  80 W9        30.09S WCI   7
$$

NDZ004>008-012>016-024-026-027-054-271100-
NORTHEAST NORTH DAKOTA

CITY           SKY/WX    TMP DP  RH WIND       PRES   REMARKS
GRAND FORKS    CLEAR      0  -3  87 CALM      30.18F
GRND FRKS AFB  PTCLDY    -2  -5  87 CALM      30.17F
DEVILS LAKE    CLOUDY     9   3  78 SW8       30.08F WCI  -4
$$

NDZ022-023-025-028>030-036>039-047>053-271100-
SOUTHEAST NORTH DAKOTA

CITY           SKY/WX    TMP DP  RH WIND       PRES   REMARKS
FARGO          CLEAR      3  -2  79 NW3       30.18F
JAMESTOWN      CLOUDY     4   0  83 SW3       30.11F
$$



USA.gov is the U.S. government's official web portal to all federal, state and local government web resources and services.